DW7027 Weather Reports


Display with metric or nautical units.
time (UTC)temp
F
wind
direction
speed
MPH
gust
MPH
rain 1hr
in
rain 24hr
in
rain mn
in
humidity
%
barometer
mb
20260902230707 62 295 2.0 5.0 0.00 0.00 0.00 72 1023.7
20260902230205 62 326 2.0 2.0 0.00 0.00 0.00 71 1023.5
20260902225705 62 311 0.0 2.0 0.00 0.00 0.00 71 1023.6
20260902225205 62 318 1.0 3.0 0.00 0.00 0.00 70 1023.6
20260902224707 62 292 2.0 2.0 0.00 0.00 0.00 70 1023.5
20260902224207 62 248 1.0 2.0 0.00 0.00 0.00 69 1023.7
20260902223705 63 349 0.0 3.0 0.00 0.00 0.00 68 1023.5
20260902223205 63 304 1.0 3.0 0.00 0.00 0.00 68 1023.6
20260902222705 63 293 2.0 5.0 0.00 0.00 0.00 68 1023.6
20260902221705 63 322 0.0 1.0 0.00 0.00 0.00 67 1023.5
20260902221205 64 321 1.0 2.0 0.00 0.00 0.00 67 1023.7
20260902220204 64 276 1.0 3.0 0.00 0.00 0.00 67 1023.5
20260902215205 64 291 2.0 3.0 0.00 0.00 0.00 66 1023.7
20260902214205 65 276 2.0 3.0 0.00 0.00 0.00 65 1023.5
20260902213205 65 287 3.0 5.0 0.00 0.00 0.00 64 1023.3
20260902212205 66 285 2.0 3.0 0.00 0.00 0.00 63 1023.4
20260902211704 66 282 1.0 5.0 0.00 0.00 0.00 63 1023.6
20260902211205 66 331 2.0 3.0 0.00 0.00 0.00 63 1023.2
20260902210205 67 331 3.0 7.0 0.00 0.00 0.00 63 1023.6
20260902205705 67 6 5.0 7.0 0.00 0.00 0.00 63 1023.4
20260902205206 67 10 2.0 3.0 0.00 0.00 0.00 62 1023.3
20260902203705 67 234 3.0 7.0 0.00 0.00 0.00 61 1023.4
20260902203205 67 239 3.0 6.0 0.00 0.00 0.00 62 1023.5
20260902202706 66 230 4.0 8.0 0.00 0.00 0.00 65 1023.6
20260902201205 66 315 2.0 5.0 0.00 0.00 0.00 67 1023.4
20260902200205 65 314 3.0 3.0 0.00 0.00 0.00 67 1023.5
20260902195205 65 291 1.0 2.0 0.00 0.00 0.00 67 1023.3
20260902194705 66 275 1.0 2.0 0.00 0.00 0.00 67 1023.3
20260902194205 66 319 2.0 3.0 0.00 0.00 0.00 67 1023.4
20260902193705 66 354 2.0 2.0 0.00 0.00 0.00 66 1023.1
20260902192705 66 261 1.0 2.0 0.00 0.00 0.00 61 1023.4
20260902192205 66 310 0.0 1.0 0.00 0.00 0.00 61 1023.2
20260902191705 66 248 0.0 1.0 0.00 0.00 0.00 60 1023.3
20260902191205 67 298 1.0 1.0 0.00 0.00 0.00 60 1023.3
20260902190705 67 289 2.0 3.0 0.00 0.00 0.00 60 1023.5
20260902190205 67 277 2.0 2.0 0.00 0.00 0.00 60 1023.5
20260902185704 67 291 0.0 2.0 0.00 0.00 0.00 60 1023.3
20260902185207 67 259 1.0 2.0 0.00 0.00 0.00 60 1023.5
20260902183705 68 272 1.0 2.0 0.00 0.00 0.00 59 1023.3
20260902183204 68 270 1.0 2.0 0.00 0.00 0.00 59 1023.4
20260902182705 68 273 1.0 2.0 0.00 0.00 0.00 60 1023.3
20260902181704 69 271 2.0 2.0 0.00 0.00 0.00 63 1023.3
20260902181205 70 281 0.0 2.0 0.00 0.00 0.00 61 1023.3
20260902180705 70 317 0.0 2.0 0.00 0.00 0.00 60 1023.0
20260902180204 71 277 0.0 1.0 0.00 0.00 0.00 59 1023.1
20260902175705 71 290 0.0 2.0 0.00 0.00 0.00 59 1023.3
20260902173206 74 343 1.0 2.0 0.00 0.00 0.00 57 1022.8
20260902172705 75 331 0.0 2.0 0.00 0.00 0.00 55 1022.8
20260902172205 75 330 1.0 2.0 0.00 0.00 0.00 53 1022.6
20260902171705 76 14 0.0 1.0 0.00 0.00 0.00 51 1022.8
20260902170706 77 32 0.0 1.0 0.00 0.00 0.00 50 1022.6
20260902165705 78 57 0.0 1.0 0.00 0.00 0.00 48 1022.8
20260902165204 78 353 0.0 2.0 0.00 0.00 0.00 48 1022.7
20260902164705 78 337 1.0 2.0 0.00 0.00 0.00 48 1022.9
20260902164206 78 326 1.0 2.0 0.00 0.00 0.00 48 1023.1
20260902163704 78 337 1.0 2.0 0.00 0.00 0.00 48 1023.0
20260902163204 78 322 1.0 3.0 0.00 0.00 0.00 47 1023.0
20260902162705 78 334 2.0 2.0 0.00 0.00 0.00 47 1022.9
20260902161204 79 349 1.0 2.0 0.00 0.00 0.00 45 1023.0
20260902160705 79 345 2.0 2.0 0.00 0.00 0.00 44 1023.0
20260902160205 79 315 2.0 3.0 0.00 0.00 0.00 43 1023.1
20260902155705 80 339 2.0 3.0 0.00 0.00 0.00 42 1023.0
20260902155205 80 344 1.0 2.0 0.00 0.00 0.00 42 1022.8
20260902154706 80 21 0.0 2.0 0.00 0.00 0.00 41 1022.7
20260902154205 81 316 1.0 3.0 0.00 0.00 0.00 40 1022.7
20260902153705 81 334 2.0 5.0 0.00 0.00 0.00 40 1022.8
20260902153205 81 3 2.0 5.0 0.00 0.00 0.00 40 1022.9
20260902152205 82 323 2.0 5.0 0.00 0.00 0.00 38 1023.0
20260902151705 82 336 2.0 6.0 0.00 0.00 0.00 38 1023.0
20260902151204 83 27 3.0 6.0 0.00 0.00 0.00 39 1023.1
20260902150204 82 303 2.0 6.0 0.00 0.00 0.00 38 1023.1
20260902144705 82 334 3.0 12.0 0.00 0.00 0.00 36 1023.1
20260902144204 82 290 5.0 10.0 0.00 0.00 0.00 37 1023.3
20260902143705 82 280 6.0 10.0 0.00 0.00 0.00 37 1023.4
20260902143205 82 293 5.0 10.0 0.00 0.00 0.00 36 1023.3
20260902141705 83 289 6.0 10.0 0.00 0.00 0.00 37 1023.6
20260902141205 83 279 5.0 9.0 0.00 0.00 0.00 36 1023.7
20260902140704 83 296 6.0 14.0 0.00 0.00 0.00 37 1023.6
20260902140205 83 289 7.0 13.0 0.00 0.00 0.00 36 1023.7
20260902135704 83 314 3.0 7.0 0.00 0.00 0.00 36 1023.8
20260902135205 83 356 2.0 6.0 0.00 0.00 0.00 37 1023.8
20260902134704 83 270 6.0 12.0 0.00 0.00 0.00 36 1023.8
20260902134204 83 280 7.0 12.0 0.00 0.00 0.00 36 1023.8
20260902132704 84 298 4.0 12.0 0.00 0.00 0.00 36 1023.8
20260902132205 84 306 7.0 13.0 0.00 0.00 0.00 35 1023.7
20260902131705 84 324 5.0 8.0 0.00 0.00 0.00 36 1023.9
20260902131206 84 283 5.0 7.0 0.00 0.00 0.00 36 1023.9
20260902130704 84 308 6.0 13.0 0.00 0.00 0.00 36 1024.1
20260902125704 84 294 9.0 13.0 0.00 0.00 0.00 36 1024.0
20260902125204 84 285 7.0 13.0 0.00 0.00 0.00 36 1024.0
20260902124705 83 271 3.0 12.0 0.00 0.00 0.00 37 1024.1
20260902123704 82 295 7.0 15.0 0.00 0.00 0.00 37 1024.1
20260902123205 82 279 5.0 8.0 0.00 0.00 0.00 38 1024.1
20260902122706 83 284 5.0 8.0 0.00 0.00 0.00 37 1024.4
20260902122204 83 287 5.0 10.0 0.00 0.00 0.00 37 1024.4
20260902121704 83 311 3.0 7.0 0.00 0.00 0.00 39 1024.5
20260902121204 82 283 6.0 12.0 0.00 0.00 0.00 41 1024.7
20260902120706 82 310 5.0 10.0 0.00 0.00 0.00 40 1024.6
20260902120204 82 273 3.0 5.0 0.00 0.00 0.00 40 1024.4
20260902115704 82 158 3.0 7.0 0.00 0.00 0.00 40 1024.4
20260902114704 81 242 2.0 5.0 0.00 0.00 0.00 41 1024.8
20260902114205 81 279 3.0 7.0 0.00 0.00 0.00 41 1024.8
20260902113206 82 250 5.0 13.0 0.00 0.00 0.00 39 1024.9
20260902112704 83 240 9.0 14.0 0.00 0.00 0.00 38 1024.9
20260902111705 83 249 3.0 9.0 0.00 0.00 0.00 38 1024.9
20260902110704 82 271 5.0 13.0 0.00 0.00 0.00 40 1024.9
20260902110204 82 188 4.0 9.0 0.00 0.00 0.00 41 1024.9
20260902105705 82 263 5.0 12.0 0.00 0.00 0.00 40 1025.1
20260902105205 82 219 7.0 10.0 0.00 0.00 0.00 40 1025.2
20260902103705 82 250 4.0 9.0 0.00 0.00 0.00 44 1025.3
20260902102706 81 297 3.0 7.0 0.00 0.00 0.00 45 1025.4
20260902102204 81 354 4.0 7.0 0.00 0.00 0.00 44 1025.5
20260902101704 81 354 3.0 6.0 0.00 0.00 0.00 47 1025.7
20260902101205 81 26 3.0 7.0 0.00 0.00 0.00 48 1025.6
20260902100704 80 349 3.0 8.0 0.00 0.00 0.00 49 1025.7
20260902100205 80 10 4.0 8.0 0.00 0.00 0.00 49 1025.7
20260902095705 79 7 3.0 5.0 0.00 0.00 0.00 50 1025.9
20260902094706 78 294 1.0 5.0 0.00 0.00 0.00 49 1025.9
20260902094206 78 213 2.0 5.0 0.00 0.00 0.00 47 1026.0
20260902093705 78 199 2.0 3.0 0.00 0.00 0.00 49 1026.2
20260902093204 77 348 2.0 5.0 0.00 0.00 0.00 52 1026.0
20260902092704 77 315 2.0 5.0 0.00 0.00 0.00 53 1026.1
20260902092204 76 147 2.0 3.0 0.00 0.00 0.00 53 1026.2
20260902091704 76 342 2.0 5.0 0.00 0.00 0.00 54 1026.3
20260902091204 75 114 2.0 3.0 0.00 0.00 0.00 57 1026.3
20260902090706 75 11 1.0 3.0 0.00 0.00 0.00 57 1026.3
20260902090204 74 244 2.0 3.0 0.00 0.00 0.00 57 1026.4
20260902085206 74 200 1.0 5.0 0.00 0.00 0.00 59 1026.3
20260902084705 73 132 1.0 3.0 0.00 0.00 0.00 60 1026.6
20260902084204 73 222 1.0 2.0 0.00 0.00 0.00 60 1026.6
20260902083706 72 167 1.0 3.0 0.00 0.00 0.00 62 1026.8
20260902083204 71 260 0.0 2.0 0.00 0.00 0.00 63 1026.5
20260902082204 70 228 1.0 2.0 0.00 0.00 0.00 66 1026.5
20260902081205 68 116 2.0 3.0 0.00 0.00 0.00 71 1026.8
20260902080705 67 287 2.0 3.0 0.00 0.00 0.00 72 1026.7
20260902080204 67 244 2.0 3.0 0.00 0.00 0.00 72 1027.0
20260902074705 64 234 1.0 3.0 0.00 0.00 0.00 76 1026.7
20260902074206 63 248 1.0 2.0 0.00 0.00 0.00 77 1026.8
20260902073704 63 8 1.0 2.0 0.00 0.00 0.00 78 1026.7
20260902073204 63 323 1.0 2.0 0.00 0.00 0.00 78 1026.5
20260902072705 63 309 1.0 2.0 0.00 0.00 0.00 79 1026.8
20260902072205 63 188 0.0 2.0 0.00 0.00 0.00 79 1026.6
20260902071705 62 3 1.0 2.0 0.00 0.00 0.00 80 1026.8
20260902071204 62 103 1.0 2.0 0.00 0.00 0.00 80 1026.5
20260902070705 62 348 2.0 3.0 0.00 0.00 0.00 81 1026.4
20260902070204 62 350 1.0 2.0 0.00 0.00 0.00 82 1026.6
20260902065706 61 184 0.0 2.0 0.00 0.00 0.00 83 1026.6
20260902065204 61 94 1.0 3.0 0.00 0.00 0.00 83 1026.3
20260902064705 60 350 1.0 2.0 0.00 0.00 0.00 83 1026.4
20260902064205 60 115 0.0 2.0 0.00 0.00 0.00 84 1026.3
20260902063705 60 119 1.0 2.0 0.00 0.00 0.00 85 1026.4
20260902062704 59 9 1.0 3.0 0.00 0.00 0.00 86 1026.3
20260902062205 58 56 1.0 2.0 0.00 0.00 0.00 86 1026.3
20260902061704 58 13 0.0 2.0 0.00 0.00 0.00 86 1026.6
20260902061204 57 346 1.0 2.0 0.00 0.00 0.00 86 1026.4
20260902060204 57 0 2.0 2.0 0.00 0.00 0.00 86 1026.2
20260902055204 56 275 1.0 2.0 0.00 0.00 0.00 87 1026.4
20260902054706 56 285 1.0 3.0 0.00 0.00 0.00 87 1026.3
20260902054204 56 250 1.0 2.0 0.00 0.00 0.00 87 1026.4
20260902053204 55 188 1.0 2.0 0.00 0.00 0.00 88 1026.2
20260902052706 55 198 0.0 2.0 0.00 0.00 0.00 87 1026.4
20260902051704 54 34 1.0 2.0 0.00 0.00 0.00 87 1026.3
20260902051205 54 302 0.0 2.0 0.00 0.00 0.00 87 1026.1
20260902050704 54 254 1.0 2.0 0.00 0.00 0.00 87 1026.2
20260902045706 53 238 1.0 1.0 0.00 0.00 0.00 87 1026.3
20260902045204 53 7 0.0 2.0 0.00 0.00 0.00 87 1026.3
20260902044704 53 61 1.0 2.0 0.00 0.00 0.00 86 1026.3
20260902044204 53 25 1.0 2.0 0.00 0.00 0.00 86 1026.1
20260902043704 53 274 1.0 3.0 0.00 0.00 0.00 86 1026.1
20260902043204 53 277 2.0 2.0 0.00 0.00 0.00 86 1026.2
20260902042706 53 306 1.0 2.0 0.00 0.00 0.00 86 1026.1
20260902040705 53 249 1.0 2.0 0.00 0.00 0.00 86 1025.8
20260902040204 53 247 1.0 2.0 0.00 0.00 0.00 86 1025.9
20260902035705 53 255 1.0 2.0 0.00 0.00 0.00 86 1025.9
20260902034204 53 272 1.0 2.0 0.00 0.00 0.00 86 1025.9
20260902033704 53 282 1.0 2.0 0.00 0.00 0.00 86 1026.0
20260902032704 53 262 1.0 2.0 0.00 0.00 0.00 85 1025.7
20260902032204 53 274 1.0 2.0 0.00 0.00 0.00 85 1025.6
20260902031704 53 273 1.0 2.0 0.00 0.00 0.00 85 1025.7
20260902031204 53 258 1.0 2.0 0.00 0.00 0.00 85 1025.6
20260902030704 53 285 2.0 2.0 0.00 0.00 0.00 85 1025.6
20260902030206 53 244 0.0 2.0 0.00 0.00 0.00 85 1025.6
20260902025706 53 255 1.0 2.0 0.00 0.00 0.00 85 1025.8
20260902024704 53 271 1.0 2.0 0.00 0.00 0.00 85 1025.6
20260902023704 53 275 1.0 2.0 0.00 0.00 0.00 84 1025.7
20260902023204 53 21 0.0 2.0 0.00 0.00 0.00 84 1025.5
20260902022705 53 307 1.0 2.0 0.00 0.00 0.00 84 1025.7
20260902022206 53 276 1.0 2.0 0.00 0.00 0.00 84 1025.8
20260902021704 53 242 2.0 3.0 0.00 0.00 0.00 84 1025.8
20260902021204 53 266 2.0 3.0 0.00 0.00 0.00 84 1025.8
20260902020706 53 287 0.0 1.0 0.00 0.00 0.00 84 1025.6
20260902020205 53 266 1.0 1.0 0.00 0.00 0.00 84 1025.9
20260902015205 53 303 1.0 2.0 0.00 0.00 0.00 83 1025.8
20260902013704 54 265 2.0 3.0 0.00 0.00 0.00 84 1026.0
20260902011704 53 345 1.0 2.0 0.00 0.00 0.00 83 1025.5
20260902011207 53 12 1.0 1.0 0.00 0.00 0.00 82 1025.7
20260902010704 54 243 1.0 2.0 0.00 0.00 0.00 82 1025.6
20260902010204 54 257 2.0 2.0 0.00 0.00 0.00 82 1025.6
20260902005704 54 265 1.0 2.0 0.00 0.00 0.00 82 1025.7
20260902005204 54 305 1.0 2.0 0.00 0.00 0.00 82 1025.9
20260902004704 53 322 1.0 2.0 0.00 0.00 0.00 82 1025.9
20260902004205 54 323 1.0 2.0 0.00 0.00 0.00 82 1025.7
20260902003704 54 303 0.0 1.0 0.00 0.00 0.00 82 1025.6
20260902003205 54 268 1.0 2.0 0.00 0.00 0.00 82 1025.9
20260902002705 54 262 2.0 2.0 0.00 0.00 0.00 82 1026.0
20260902001705 54 252 2.0 2.0 0.00 0.00 0.00 82 1026.0
20260902001204 54 275 1.0 2.0 0.00 0.00 0.00 81 1026.0
20260902000204 54 346 2.0 2.0 0.00 0.00 0.00 81 1025.8
20260901235704 54 337 2.0 2.0 0.00 0.00 0.00 81 1025.8
20260901235205 54 6 1.0 2.0 0.00 0.00 0.00 81 1025.8
20260901233704 54 354 2.0 2.0 0.00 0.00 0.00 80 1026.1
20260901232703 54 280 1.0 2.0 0.00 0.00 0.00 79 1025.7
20260901231204 54 328 1.0 2.0 0.00 0.00 0.00 79 1025.7